Location: Biran
(43.6945°N, 0.4173°E)
Time: 06:21:48
(UTC+00:00)

Daily predictions for brighter satellites

Satellite Brightness Start Highest point End
(mag) Time Altitude Azimuth Time Altitude Azimuth Time Altitude Azimuth
ADEOS 4.0 16:43:21 10° S 16:48:32 70° WSW 16:53:47 10° NNW
COSMO-SKYMED 1 4.5 16:49:08 10° ENE 16:50:49 12° E 16:52:29 10° ESE
USA 276 2.5 16:51:08 10° NW 16:54:09 45° NNE 16:57:10 10° E
CZ-2C R/B 2.9 16:50:22 10° SSE 16:55:20 80° ENE 17:00:09 10° N
ISS -2.1 16:56:42 10° NW 16:59:25 22° N 17:02:08 10° ENE
USA 306 4.5 16:56:16 10° WNW 16:59:46 24° NNW 17:03:16 10° NE
FengYun 1-2 T 4.2 16:55:47 10° SSE 17:01:20 68° ENE 17:06:51 10° N
Cosmos 540 Rocket 4.3 17:00:57 10° SSE 17:05:23 31° E 17:09:51 10° NE
Okean O Rocket 3.0 17:05:10 10° ESE 17:08:07 18° ENE 17:11:03 10° NNE
Cosmos 1408 Rocket 3.7 17:04:44 10° N 17:09:06 83° W 17:13:28 10° S
Cosmos 1939 Rocket 2.9 17:05:58 10° SSE 17:10:03 68° ENE 17:14:09 10° N
Cosmos 468 Rocket 4.1 17:05:26 10° S 17:10:28 59° ESE 17:15:35 10° NNE
Cosmos 1898 Rocket 3.7 17:06:37 10° N 17:11:43 47° ENE 17:16:43 10° SE
Cosmos 1656 3.7 17:06:47 10° NNW 17:12:21 86° ENE 17:17:58 10° SSE
Cosmos 1743 Rocket 3.5 17:11:42 10° N 17:15:59 62° E 17:20:16 10° SSE
Cosmos 1697 Rocket 2.8 17:13:52 10° NNW 17:19:21 51° ENE 17:24:48 10° SE
Cosmos 2369 4.3 17:14:26 10° N 17:19:42 36° NE 17:24:55 10° ESE
Meteor 1-25 Rocket 4.2 17:14:55 10° N 17:20:26 60° ENE 17:25:58 10° SSE
Cosmos 1151 Rocket 4.3 17:19:27 10° SE 17:22:32 20° E 17:24:43 14° NE
Cosmos 1980 Rocket 2.9 17:17:36 10° N 17:22:34 30° NE 17:27:29 10° ESE
H-2A R/B 2.3 17:20:21 10° SE 17:25:18 46° ENE 17:30:09 10° N
Cosmos 1812 3.9 17:25:47 10° SE 17:28:47 22° E 17:30:15 18° ENE
SMAP 3.1 17:24:26 10° SSE 17:29:05 84° W 17:33:45 10° NNW
ATLAS CENTAUR R/B 4.0 17:28:31 10° NW 17:30:15 12° NNW 17:32:00 10° N
SL-16 R/B 3.9 17:28:08 10° NNE 17:30:31 13° NE 17:30:49 12° NE
Cosmos 2082 Rocket 2.8 17:28:49 10° S 17:33:59 37° ESE 17:38:07 15° NE
SJ 16-02 4.2 17:31:18 10° NW 17:34:36 21° W 17:37:54 10° SSW
Cosmos 1809 Rocket 4.4 17:28:36 10° N 17:34:41 65° E 17:40:42 10° SSE
COSMOS 2455 3.2 17:29:10 10° S 17:34:50 46° ESE 17:39:32 15° NE
CZ-4B DEB 4.2 17:32:13 10° SSE 17:37:44 86° ENE 17:43:16 10° NNW
ATLAS 5 CENTAUR R/B 3.6 17:31:29 10° NW 17:37:58 23° N 17:39:45 18° NE
CZ-4C R/B 3.4 17:32:16 10° NNW 17:38:47 38° NE 17:45:25 13° ESE
Cosmos 44 4.3 17:34:19 10° NW 17:38:49 45° WSW 17:43:03 10° S
SKYMED 2 4.1 17:35:28 11° NNE 17:39:16 37° E 17:43:18 10° SSE
SL-24 R/B - RUBIN 2 4.3 17:36:09 10° NNW 17:40:16 32° NE 17:42:23 21° E
Cosmos 1782 2.8 17:37:31 10° S 17:41:25 56° E 17:45:21 10° NNE
ATLAS CENTAUR R/B 3.1 17:31:28 10° SW 17:42:23 81° NW 17:45:46 19° NE
Cosmos 1602 3.6 17:40:13 10° N 17:44:05 79° E 17:47:56 10° S
CORIOLIS 4.4 17:38:59 10° S 17:44:21 73° WSW 17:49:48 10° NNW
Cosmos 2278 4.4 17:39:25 10° N 17:44:32 32° NE 17:48:32 15° ESE
Cosmos 1500 Rocket 4.2 17:40:51 10° NNW 17:45:14 59° W 17:49:33 10° S
Cosmos 1763 Rocket 3.8 17:41:59 10° SSW 17:47:00 64° WNW 17:52:05 10° NNE
USA 267 3.9 17:42:43 13° NE 17:48:11 46° NNW 17:54:21 10° W
COSMOS 2406 3.2 17:42:45 10° SSW 17:48:29 81° ESE 17:53:56 12° NNE
Cosmos 841 Rocket 3.4 17:46:24 10° S 17:51:29 63° ESE 17:55:39 15° NNE
Landsat 5 4.0 17:52:10 28° ENE 17:53:35 36° E 17:57:18 10° SSE
Cosmos 1340 Rocket 4.5 17:50:01 10° NNW 17:53:46 37° W 17:57:31 10° SSW
Cosmos 1092 Rocket 4.1 17:47:28 10° N 17:53:51 82° W 18:00:10 10° S
Cosmos 1937 Rocket 3.4 17:49:30 10° NNW 17:54:52 81° ENE 18:00:10 10° SSE
Cosmos 1805 Rocket 3.6 17:52:19 10° NNW 17:56:40 77° W 18:00:58 10° S
Sich 1 2.9 17:55:32 10° N 17:59:50 90° ENE 18:04:09 10° S
Cosmos 1833 Rocket 3.0 17:54:45 10° SW 18:00:19 65° WNW 18:05:51 10° NNE
Cosmos 1428 Rocket 4.5 17:54:16 10° N 18:00:26 84° W 18:06:35 10° S
SJ-11-01 4.3 17:55:50 10° SSE 18:00:28 57° ENE 18:05:08 10° N
ARGOS 3.1 17:56:11 10° SSE 18:01:30 60° ENE 18:06:49 10° N
CZ-2D R/B 3.6 17:57:49 10° S 18:01:38 65° WSW 18:05:27 10° NNW
PAYLOAD B 4.4 17:56:21 10° S 18:01:58 78° WSW 18:07:36 10° NNW
Lacrosse 5 rocket 3.0 18:00:09 10° NNW 18:02:30 17° NNE 18:02:30 17° NNE
USA 229 DEB 4.1 17:58:15 10° NW 18:05:39 76° WSW 18:13:28 10° SSE
USA 229 4.1 17:58:21 10° NW 18:05:44 76° WSW 18:13:33 10° SSE
Cosmos 2142 Rocket 4.4 18:03:54 10° S 18:09:59 71° E 18:16:10 10° NNE
Cosmos 372 Rocket 3.9 18:07:02 10° NNW 18:12:17 73° ENE 18:17:31 10° SSE
CZ-4B R/B 3.1 18:07:47 10° SSE 18:13:15 88° WSW 18:18:39 10° NNW
deb Chang Zheng 4 3.5 18:09:52 10° SSE 18:14:10 88° WSW 18:18:31 10° NNW
YAOGAN 3 4.4 18:12:48 10° SSE 18:17:09 83° ENE 18:21:32 10° NNW
USA 234 4.1 18:15:03 10° SSE 18:21:20 49° SW 18:27:40 10° WNW
Feng Yun 1-1 Rocket 4.3 18:15:40 10° SSE 18:21:28 60° ENE 18:27:15 10° N
Cosmos 2279 Rocket 3.9 18:15:32 10° S 18:21:45 83° E 18:27:59 10° N
Cosmos 1500 3.9 18:19:31 10° NNW 18:23:10 52° W 18:26:47 10° S
CZ-2C R/B 2.6 18:18:49 10° N 18:24:03 79° WNW 18:29:11 10° SSW
DMSP B5D2-2 4.4 18:24:39 42° ESE 18:24:39 42° ESE 18:29:11 10° S
Meteor 2-16 Rocket 4.3 18:19:13 10° N 18:25:22 85° E 18:31:30 10° S
COSMO-SKYMED 1 2.9 18:24:05 17° N 18:27:24 66° WNW 18:31:42 10° SSW
GEOS 3 Rocket 3.6 18:26:15 46° E 18:27:28 58° NE 18:32:33 10° NNW
Cosmos 2266 Rocket 4.2 18:21:44 10° N 18:27:54 49° ENE 18:34:05 10° SSE
USA 276 3.7 18:27:18 10° WNW 18:30:06 30° SW 18:30:21 30° SSW
Cosmos 1570 Rocket 3.8 18:28:51 10° SSW 18:34:05 79° ESE 18:35:30 49° NNE
NOSS 2-2 (D) 4.4 18:31:06 10° NW 18:36:31 86° SW 18:44:10 10° SSE
ISS -2.0 18:33:29 10° NW 18:35:15 26° NW 18:35:15 26° NW
Cosmos 1818 4.2 18:35:17 10° NNW 18:39:29 39° NNE 18:39:29 39° NNE
Cosmos 2360 Rocket 4.3 18:36:40 10° N 18:37:21 12° N 18:37:21 12° N
Cosmos 1633 Rocket 3.2 18:36:59 10° NNW 18:41:20 73° W 18:45:41 10° S
Okean O Rocket 2.4 18:39:44 10° S 18:44:03 51° W 18:48:25 10° NNW
Meteor 2-15 Rocket 4.4 18:38:42 10° S 18:44:42 60° E 18:44:57 59° E
Cosmos 1814 Rocket 4.1 18:39:29 10° SSW 18:44:44 74° WNW 18:46:27 43° N
Cosmos 1655 Rocket 3.9 18:47:53 10° N 18:54:19 80° E 19:00:41 10° S
Cosmos 2322 Rocket 3.9 18:54:12 10° N 18:56:10 20° N 18:56:10 20° N
Cosmos 1151 Rocket 4.4 18:55:49 10° SW 18:59:48 36° WNW 19:01:36 25° NNW
H-2A R/B 4.4 19:00:51 10° SW 19:04:54 23° W 19:08:55 10° NW
Cosmos 2208 Rocket 4.2 19:00:11 10° SSW 19:05:33 71° WNW 19:05:47 70° NW
Cosmos 1980 Rocket 3.2 19:01:22 10° NW 19:06:44 45° WSW 19:12:02 10° S
SL-16 R/B 3.6 19:10:13 10° NNW 19:12:42 26° N 19:12:42 26° N
Cosmos 2082 Rocket 3.5 19:12:53 10° WSW 19:18:04 35° NW 19:20:00 28° NNW
COSMOS 2455 4.1 19:15:26 10° WSW 19:20:54 35° NW 19:22:43 29° NNW
CZ-4C R/B 3.2 19:20:31 10° NW 19:27:53 68° WSW 19:30:43 44° S
USA 267 4.5 19:30:04 28° N 19:30:14 28° N 19:35:37 10° WNW
